Regional Weather Roundup
Issued by NWS

Home | Current Version | Previous Version | Graphics & Text | Print | Product List | Glossary On
Versions: 1 2 3 4 5 6 7 8 9 10 11 12 13 14 15 16 17 18 19 20 21 22 23 24 25 26 27 28 29 30 31 32 33 34 35 36 37 38 39 40 41 42 43 44 45 46 47 48 49 50
000
ASUS43 KFSD 010010
RWRSD

WEATHER ROUNDUP FOR SOUTH DAKOTA
NATIONAL WEATHER SERVICE SIOUX FALLS SD
700 PM CDT TUE JUN 30 2015

NOTE: "FAIR" INDICATES FEW OR NO CLOUDS BELOW 12,000 FEET WITH NO
SIGNIFICANT WEATHER AND/OR OBSTRUCTIONS TO VISIBILITY.


SDZ001>005-009-010-012>017-010100-
NORTHWEST AND NORTH CENTRAL SOUTH DAKOTA

CITY           SKY/WX    TMP DP  RH WIND       PRES   REMARKS
BUFFALO          N/A     84  67  56 SE13      29.78F
FAITH            N/A     77  63  61 S20G26    29.86F
MOBRIDGE       PTSUNNY   73  66  78 E12       29.85S
$$

SDZ012>016-024>037-041>051-057-063-072>074-010100-
SOUTHWEST AND SOUTH CENTRAL SOUTH DAKOTA

CITY           SKY/WX    TMP DP  RH WIND       PRES   REMARKS
RAPID CTY ARPT SUNNY     83  67  58 NE8       29.89F
PIERRE         CLOUDY    74  67  78 SE15      29.83F
CUSTER         SUNNY     84  51  31 VRB6      30.05F
ELLSWORTH AFB  SUNNY     84  66  55 VRB5      29.89F
PHILIP         PTSUNNY   79  66  64 E13       29.84S
PINE RIDGE     PTSUNNY   89  61  38 N12       29.87S
SPEARFISH      FAIR      84  64  51 S3        29.95F
WINNER         FAIR      79  60  52 E17       29.87S
$$

SDZ004>011-016>023-039-040-010100-
NORTHEAST SOUTH DAKOTA

CITY           SKY/WX    TMP DP  RH WIND       PRES   REMARKS
ABERDEEN       PTSUNNY   77  63  61 CALM      29.89R
WATERTOWN      CLOUDY    71  61  70 E7        29.90F
BROOKINGS      CLOUDY    72  61  68 E9        29.92S
SISSETON         N/A     73  58  59 E8        29.90S
$$

SDZ017-020-022-023-036>040-048>070-010100-
SOUTHEAST SOUTH DAKOTA

CITY           SKY/WX    TMP DP  RH WIND       PRES   REMARKS
SIOUX FALLS    CLOUDY    72  65  78 W3        29.90R
HURON          LGT RAIN  71  69  93 CALM      29.88S FOG
CHAMBERLAIN    CLOUDY    72  66  81 E6        29.88F
MITCHELL       LGT RAIN  71  70  96 CALM      29.90R FOG
YANKTON        CLOUDY    70  66  88 E3        29.86F
$$

ABBREVIATIONS USED IN REMARKS
   TC - TEMPERATURE IN CELSIUS
  WCI - WIND CHILL INDEX
   HX - HEAT INDEX
  VSB - VISIBILITY




USA.gov is the U.S. government's official web portal to all federal, state and local government web resources and services.